Weather reports worldwide

Advertisment
Konstanz, Germany (10929): temperature & dewpoint: 16.06.2018 15:00:00 - 22.06.2018 15:00:00 (CEST)Konstanz, Germany (10929): temperature 5cm & temperature -5cm: 16.06.2018 15:00:00 - 22.06.2018 15:00:00 (CEST)Konstanz, Germany (10929): temperature -20cm & temperature -100cm: 16.06.2018 15:00:00 - 22.06.2018 15:00:00 (CEST)Konstanz, Germany (10929): wind speed & gusts: 16.06.2018 15:00:00 - 22.06.2018 15:00:00 (CEST)Konstanz, Germany (10929): wind direction: 16.06.2018 15:00:00 - 22.06.2018 15:00:00 (CEST)Konstanz, Germany (10929): reduced air pressure: 16.06.2018 15:00:00 - 22.06.2018 15:00:00 (CEST)Konstanz, Germany (10929): visibility: 16.06.2018 15:00:00 - 22.06.2018 15:00:00 (CEST)Konstanz, Germany (10929): sunshine duration: 16.06.2018 15:00:00 - 22.06.2018 15:00:00 (CEST)Konstanz, Germany (10929): precipitation: 16.06.2018 15:00:00 - 22.06.2018 15:00:00 (CEST)
Date & Time tt [°C] td [°C] tt 5cm [°C] tt -5cm [°C] tt -20cm [°C] tt -100cm [°C] ff [km/h] ff [kn] fx [km/h] fx [kn] dd ppp [hPa] vv [km] sd [min] rr [mm]
22.06.2018 15:00:00 18,2 4,5 21,2 26,7 24,3 20,2 7 4 24 13 ENE 1022,8 70 12 0,0
22.06.2018 14:00:00 18,7 3,7 23,5 27,2 23,8 20,2 8 4 26 14 WNW 1023,2 70 50 0,0
22.06.2018 13:00:00 17,7 2,9 24,0 26,0 23,2 20,2 12 7 28 15 W 1023,8 43 60 0,0
22.06.2018 12:00:00 16,8 2,4 22,3 24,5 22,9 20,2 13 7 24 13 WNW 1024,4 51 60 0,0
22.06.2018 11:00:00 15,4 4,4 20,8 22,9 22,6 20,2 10 5 19 10 W 1024,3 46 60 0,0
22.06.2018 10:00:00 14,1 4,0 17,2 21,1 22,7 20,2 8 4 16 9 WNW 1024,5 55 58 0,0
22.06.2018 09:00:00 12,5 4,4 13,7 19,6 22,9 20,1 9 5 20 11 NNE 1024,5 58 59 0,0
22.06.2018 08:00:00 11,4 4,4 11,5 19,3 23,2 20,1 11 6 20 11 N 1024,6 70 51 0,0
22.06.2018 07:00:00 11,0 3,7 10,4 19,7 23,6 20,1 9 5 16 9 NNE 1024,5 70 25 0,0
22.06.2018 06:00:00 11,3 3,0 10,9 20,1 24,0 20,1 9 5 16 9 NNE 1024,2 70 1 0,0
22.06.2018 05:00:00 11,9 3,0 11,2 20,6 24,4 20,1 9 5 21 11 NNE 1023,9 70 0 0,0
22.06.2018 04:00:00 12,5 3,8 11,3 21,3 24,9 20,1 7 4 22 12 NNE 1023,7 70 0 0,0
22.06.2018 03:00:00 13,9 3,8 13,2 22,2 25,3 20,1 11 6 32 17 N 1022,8 70 0 0,0
22.06.2018 02:00:00 15,7 3,2 15,5 23,0 25,6 20,0 14 8 28 15 N 1022,1 70 0 0,0
22.06.2018 01:00:00 16,6 4,0 16,3 23,7 26,0 20,0 14 7 34 19 NNE 1021,0 70 0 0,0
22.06.2018 00:00:00 18,3 6,4 18,1 24,7 26,4 20,0 19 10 33 18 N 1020,0 70 0 0,0
21.06.2018 23:00:00 20,1 10,0 19,9 25,5 26,7 20,0 13 7 27 15 NNW 1018,4 70 0 0,0
21.06.2018 22:00:00 21,2 12,2 20,8 26,3 27,1 20,0 11 6 31 17 NNW 1017,2 70 0 0,0
21.06.2018 21:00:00 22,3 12,3 22,1 27,4 27,3 20,0 14 8 31 17 NW 1016,0 70 2 0,0
21.06.2018 20:00:00 24,0 12,7 24,0 28,6 27,4 20,0 15 8 34 18 NNW 1014,8 70 11 0,0
21.06.2018 19:00:00 25,3 10,8 25,7 29,6 27,5 19,9 16 9 33 18 NW 1014,2 70 2 0,0
21.06.2018 18:00:00 26,1 11,2 27,1 30,9 27,3 19,9 16 9 36 19 NW 1013,9 70 44 0,0
21.06.2018 17:00:00 27,9 13,1 32,1 31,1 27,0 19,9 15 8 39 21 NW 1013,4 39 42 0,0
21.06.2018 16:00:00 28,9 13,3 34,1 31,4 26,6 19,9 19 10 43 23 NW 1013,0 22 59 0,0
21.06.2018 15:00:00 29,6 11,7 34,7 30,8 26,2 19,9 22 12 45 25 W 1013,3 13 60 0,0
21.06.2018 14:00:00 28,2 13,3 31,7 30,1 25,7 19,9 21 12 39 21 W 1013,7 3,6 49 0,0
21.06.2018 13:00:00 27,9 14,3 32,0 29,6 25,2 19,8 14 7 31 17 W 1014,1 19 46 0,0
21.06.2018 12:00:00 27,1 15,5 28,6 31,3 24,7 19,8 11 6 28 15 W 1014,8 30 59 0,0
21.06.2018 11:00:00 25,3 16,1 28,9 28,5 24,1 19,8 11 6 19 10 W 1015,1 43 58 0,0
21.06.2018 10:00:00 24,0 15,7 27,8 25,7 23,9 19,8 9 5 15 8 W 1015,4 41 59 0,0
21.06.2018 09:00:00 22,5 15,8 22,7 23,1 24,0 19,8 5 3 9 5 W 1016,1 48 46 0,0
21.06.2018 08:00:00 20,2 15,8 21,2 22,0 24,2 19,7 6 3 9 5 NW 1016,6 42 57 0,0
21.06.2018 07:00:00 18,9 16,1 17,8 21,6 24,6 19,7 3 2 4 2 W 1016,8 45 60 0,0
21.06.2018 06:00:00 17,9 16,1 16,5 21,9 25,0 19,7 3 1 6 3 WNW 1016,7 39 3 0,0
21.06.2018 05:00:00 18,4 16,1 17,1 22,5 25,4 19,7 5 3 9 5 W 1016,6 44 0 0,0
21.06.2018 04:00:00 19,0 16,0 17,4 23,1 25,8 19,7 6 3 9 5 W 1016,9 59 0 0,0
21.06.2018 03:00:00 19,3 16,2 18,1 23,8 26,2 19,7 4 2 7 4 NNW 1016,9 61 0 0,0
21.06.2018 02:00:00 20,8 17,0 19,6 24,5 26,7 19,6 8 4 10 6 NW 1017,0 70 0 0,0
21.06.2018 01:00:00 21,4 15,0 18,9 25,3 27,2 19,6 5 3 8 4 WNW 1017,1 70 0 0,0
21.06.2018 00:00:00 22,3 15,2 20,0 26,2 27,7 19,6 5 3 7 4 W 1017,3 70 0 0,0
20.06.2018 23:00:00 23,2 15,0 20,3 27,4 28,2 19,6 2 1 6 3 ENE 1017,2 70 0 0,0
20.06.2018 22:00:00 24,3 14,5 22,1 28,8 28,6 19,6 5 3 9 5 ENE 1016,8 70 12 0,0
20.06.2018 21:00:00 26,5 14,7 24,8 30,7 28,9 19,6 3 2 8 4 ENE 1016,0 70 56 0,0
20.06.2018 20:00:00 29,7 12,7 28,5 33,2 28,9 19,6 5 3 8 4 N 1015,6 70 60 0,0
20.06.2018 19:00:00 30,0 13,3 30,6 34,8 28,6 19,6 4 2 10 5 E 1015,6 52 60 0,0
20.06.2018 18:00:00 30,5 13,5 31,9 35,9 28,2 19,6 6 3 11 6 NE 1015,8 44 60 0,0
20.06.2018 17:00:00 30,2 13,2 33,5 36,5 27,5 19,6 5 3 14 8 NNW 1016,5 44 60 0,0
20.06.2018 16:00:00 29,6 13,8 32,9 36,4 26,7 19,5 6 3 15 8 NNE 1017,0 44 60 0,0
20.06.2018 15:00:00 29,2 13,8 32,9 35,9 25,8 19,5 8 5 16 8 NNE 1017,5 40 60 0,0
20.06.2018 14:00:00 27,8 12,2 31,8 34,7 24,8 19,5 7 4 11 6 NNE 1018,3 38 60 0,0
20.06.2018 13:00:00 27,3 12,7 31,5 32,7 23,8 19,5 6 3 13 7 N 1018,8 43 60 0,0
20.06.2018 12:00:00 25,5 14,6 30,5 30,0 23,0 19,5 5 3 12 7 S 1019,4 48 60 0,0
20.06.2018 11:00:00 25,2 15,1 29,2 26,9 22,4 19,5 6 3 12 7 NE 1019,6 47 60 0,0
20.06.2018 10:00:00 23,1 14,6 25,5 23,3 22,2 19,5 6 3 9 5 NE 1020,2 53 60 0,0
20.06.2018 09:00:00 21,1 13,5 19,9 20,3 22,3 19,5 5 3 10 6 E 1020,9 50 60 0,0
20.06.2018 08:00:00 19,3 14,0 19,1 20,0 22,6 19,4 4 2 8 4 ENE 1021,4 60 60 0,0
20.06.2018 07:00:00 17,5 13,9 16,0 19,5 22,9 19,4 5 3 12 7 N 1021,6 70 60 0,0
20.06.2018 06:00:00 16,6 13,7 14,9 19,8 23,3 19,4 7 4 11 6 N 1021,7 70 5 0,0
20.06.2018 05:00:00 16,8 13,6 14,3 20,3 23,7 19,4 8 4 11 6 N 1021,9 70 0 0,0
20.06.2018 04:00:00 17,3 13,3 14,5 20,9 24,2 19,4 7 4 12 6 N 1021,8 70 0 0,0
20.06.2018 03:00:00 17,6 13,6 15,8 21,6 24,6 19,4 7 4 13 7 N 1021,9 70 0 0,0
20.06.2018 02:00:00 18,3 14,3 16,9 22,3 25,1 19,4 8 5 11 6 NNE 1022,3 70 0 0,0
20.06.2018 01:00:00 18,9 13,3 16,6 23,2 25,6 19,4 5 3 8 4 NNE 1022,2 70 0 0,0
20.06.2018 00:00:00 20,1 13,8 17,1 24,2 26,1 19,4 4 2 17 9 NNE 1022,1 70 0 0,0
19.06.2018 23:00:00 21,0 13,1 18,7 25,3 26,6 19,4 6 4 13 7 ENE 1022,0 70 0 0,0
19.06.2018 22:00:00 21,6 13,1 19,5 26,8 27,1 19,4 5 3 7 4 ENE 1021,9 70 9 0,0
19.06.2018 21:00:00 24,2 11,9 22,5 28,7 27,3 19,4 4 2 9 5 SE 1021,3 70 60 0,0
19.06.2018 20:00:00 25,6 11,5 25,1 31,3 27,4 19,4 6 3 10 6 SE 1021,1 70 59 0,0
19.06.2018 19:00:00 26,6 12,3 27,3 33,0 27,1 19,4 6 4 11 6 E 1021,1 51 60 0,0
19.06.2018 18:00:00 27,1 12,9 29,1 34,1 26,7 19,4 6 3 13 7 NNE 1021,1 55 60 0,0
19.06.2018 17:00:00 26,6 12,7 29,7 34,6 26,0 19,4 6 3 13 7 N 1021,6 34 60 0,0
19.06.2018 16:00:00 26,0 12,1 29,4 34,5 25,2 19,3 8 4 17 9 NE 1022,1 33 60 0,0
19.06.2018 15:00:00 25,2 11,9 29,6 34,0 24,3 19,3 7 4 16 9 NE 1022,7 46 60 0,0
19.06.2018 14:00:00 24,0 11,7 27,8 32,8 23,3 19,3 9 5 17 9 E 1023,4 40 60 0,0
19.06.2018 13:00:00 24,0 12,2 29,0 30,8 22,4 19,3 5 3 13 7 E 1023,5 37 60 0,0
19.06.2018 12:00:00 23,1 12,0 27,3 28,2 21,6 19,3 7 4 16 8 E 1023,8 43 60 0,0
19.06.2018 11:00:00 21,9 12,0 25,5 25,1 21,1 19,3 6 4 12 7 ESE 1024,4 52 60 0,0
19.06.2018 10:00:00 21,2 13,6 24,6 22,1 20,9 19,3 5 3 9 5 ESE 1024,8 66 60 0,0
19.06.2018 09:00:00 18,5 13,1 18,5 19,8 20,9 19,3 4 2 8 5 SW 1025,2 48 17 0,0
19.06.2018 08:00:00 16,7 12,8 17,5 18,8 21,0 19,3 6 3 10 5 WNW 1025,5 44 5 0,0
19.06.2018 07:00:00 16,0 13,0 15,4 18,1 21,3 19,3 5 3 9 5 NW 1025,2 48 24 0,0
19.06.2018 06:00:00 15,4 12,6 14,1 18,3 21,6 19,3 6 3 9 5 WNW 1025,0 36 0 0,0
19.06.2018 05:00:00 16,0 12,5 15,2 18,8 21,9 19,3 5 3 8 5 WNW 1024,6 44 0 0,0
19.06.2018 04:00:00 15,7 12,0 13,4 18,9 22,3 19,3 5 3 7 4 N 1024,2 59 0 0,0
19.06.2018 03:00:00 16,0 11,8 14,0 19,5 22,7 19,3 0 0 7 4 N 1023,8 60 0 0,0
19.06.2018 02:00:00 16,5 11,9 14,4 20,0 23,2 19,3 4 2 11 6 NNW 1023,8 51 0 0,0
19.06.2018 01:00:00 17,7 11,7 15,7 20,7 23,6 19,3 4 2 13 7 NW 1023,3 62 0 0,0
19.06.2018 00:00:00 18,5 11,5 16,5 21,6 24,1 19,3 6 3 17 9 N 1023,1 70 0 0,0
18.06.2018 23:00:00 19,1 12,5 17,6 22,8 24,5 19,3 7 4 14 7 W 1022,5 70 0 0,0
18.06.2018 22:00:00 20,4 13,3 18,1 24,0 24,9 19,3 5 3 6 4 WSW 1021,5 70 0 0,0
18.06.2018 21:00:00 21,8 12,3 19,8 25,7 25,1 19,3 3 2 10 5 NW 1021,0 70 36 0,0
18.06.2018 20:00:00 24,4 10,8 23,3 27,9 25,1 19,3 6 3 12 7 WNW 1020,3 70 59 0,0
18.06.2018 19:00:00 24,9 11,2 25,3 29,4 24,9 19,3 8 4 16 9 NW 1020,2 52 60 0,0
18.06.2018 18:00:00 24,4 10,5 26,2 30,2 24,5 19,3 6 4 15 8 W 1020,3 47 58 0,0
18.06.2018 17:00:00 24,4 10,0 26,8 30,7 23,9 19,3 8 5 16 9 WNW 1020,4 35 60 0,0
18.06.2018 16:00:00 24,1 9,9 28,0 30,0 23,3 19,3 4 2 13 7 S 1020,7 47 60 0,0
18.06.2018 15:00:00 22,7 11,2 25,9 28,6 22,7 19,3 6 4 15 8 ENE 1021,2 46 57 0,0
18.06.2018 14:00:00 21,4 10,2 23,7 28,1 22,1 19,3 8 4 17 9 E 1021,7 63 55 0,0
18.06.2018 13:00:00 21,5 11,3 24,7 27,1 21,4 19,2 5 3 14 7 NNE 1021,9 45 60 0,0
18.06.2018 12:00:00 20,5 10,8 23,1 24,6 20,9 19,2 6 3 13 7 NNE 1022,3 68 37 0,0
18.06.2018 11:00:00 19,2 11,2 24,6 23,1 20,6 19,2 4 2 8 4 W 1022,4 66 27 0,0
18.06.2018 10:00:00 18,4 12,6 19,7 20,6 20,5 19,2 4 2 7 4 N 1022,5 66 3 0,0
18.06.2018 09:00:00 17,5 13,4 18,2 19,3 20,5 19,2 3 2 7 4 N 1022,6 65 0 0,0
18.06.2018 08:00:00 16,3 12,8 16,3 18,9 20,7 19,2 6 3 8 4 NNW 1022,6 58 0 0,0
18.06.2018 07:00:00 16,2 13,5 16,1 18,7 20,8 19,2 3 1 6 3 NNW 1022,3 49 0 0,0
18.06.2018 06:00:00 15,8 14,1 15,6 18,7 21,0 19,2 3 1 8 4 NW 1022,0 33 0 0,0
18.06.2018 05:00:00 15,9 13,9 15,7 18,8 21,2 19,2 4 2 8 5 N 1021,8 30 0 0,0
18.06.2018 04:00:00 15,9 14,4 15,7 18,9 21,4 19,2 4 2 9 5 NW 1021,5 27 0 0,0
18.06.2018 03:00:00 16,0 14,7 15,5 19,2 21,7 19,2 4 2 9 5 W 1021,6 27 0 0,0
18.06.2018 02:00:00 16,3 14,6 15,9 19,5 22,0 19,2 4 2 11 6 WNW 1021,5 41 0 0,0
18.06.2018 01:00:00 16,3 14,3 15,9 19,8 22,3 19,2 8 4 14 8 WSW 1021,5 43 0 0,0
18.06.2018 00:00:00 16,4 14,7 15,9 20,3 22,6 19,1 8 4 12 6 WSW 1021,1 41 0 0,2
17.06.2018 23:00:00 16,7 15,1 16,4 20,7 22,9 19,1 4 2 9 5 WSW 1020,9 38 0 0,0
17.06.2018 22:00:00 16,8 15,3 16,5 21,2 23,2 19,1 5 3 7 4 WNW 1020,5 36 0 0,0
17.06.2018 21:00:00 16,9 15,3 16,5 21,8 23,6 19,1 4 2 10 5 S 1019,5 41 0 0,3
17.06.2018 20:00:00 16,6 14,9 16,1 22,5 23,9 19,1 7 4 27 15 NW 1019,1 6 0 3,4
17.06.2018 19:00:00 20,2 13,7 20,8 24,3 24,1 19,1 8 5 13 7 NNW 1017,6 70 0 0,0
17.06.2018 18:00:00 20,2 13,6 21,3 25,0 24,3 19,1 6 3 16 9 W 1017,4 70 5 0,0
17.06.2018 17:00:00 19,7 14,8 18,8 25,8 24,3 19,1 11 6 18 10 SW 1017,5 27 0 0,0
17.06.2018 16:00:00 20,7 13,6 22,4 27,5 24,1 19,1 8 5 26 14 WNW 1017,2 65 15 0,4
17.06.2018 15:00:00 20,7 13,3 22,4 29,8 23,6 19,1 14 7 29 16 WNW 1017,4 70 26 0,0
17.06.2018 14:00:00 22,9 12,5 25,2 29,3 23,0 19,1 6 4 14 8 NE 1016,8 70 32 0,0
17.06.2018 13:00:00 22,3 13,9 25,1 27,7 22,3 19,1 7 4 16 8 NE 1017,3 70 18 0,0
17.06.2018 12:00:00 21,9 11,7 24,4 27,6 21,7 19,0 8 5 16 8 NNE 1017,5 68 46 0,0
17.06.2018 11:00:00 21,9 11,9 25,0 23,8 21,3 19,0 6 4 16 9 N 1017,7 57 28 0,0
17.06.2018 10:00:00 20,1 12,3 21,8 21,7 21,2 19,0 6 4 15 8 WNW 1017,9 70 8 0,0
17.06.2018 09:00:00 19,5 12,2 20,2 20,2 21,3 19,0 9 5 16 8 W 1017,7 57 28 0,0
17.06.2018 08:00:00 18,6 13,0 19,1 19,6 21,4 19,0 7 4 11 6 W 1017,5 67 46 0,0
17.06.2018 07:00:00 17,3 13,0 16,7 18,9 21,7 19,0 6 3 16 9 WNW 1017,3 60 33 0,0
17.06.2018 06:00:00 16,0 12,1 14,7 18,8 22,1 19,0 4 2 14 8 WNW 1016,9 45 0 0,0
17.06.2018 05:00:00 16,3 12,0 15,3 19,3 22,5 19,0 9 5 16 9 NW 1016,6 45 0 0,0
17.06.2018 04:00:00 16,1 13,2 14,8 19,8 22,9 19,0 5 3 13 7 WNW 1016,4 33 0 0,0
17.06.2018 03:00:00 16,5 12,5 15,0 20,6 23,3 19,0 2 1 6 4 ENE 1015,9 41 0 0,0
17.06.2018 02:00:00 17,5 12,4 15,0 21,3 23,7 19,0 4 2 5 3 WSW 1015,9 47 0 0,0
17.06.2018 01:00:00 18,7 13,1 16,4 22,2 24,1 19,0 5 3 7 4 SE 1015,5 44 0 0,0
17.06.2018 00:00:00 19,7 12,8 18,7 23,3 24,5 19,0 3 2 7 4 WNW 1015,4 61 0 0,0
16.06.2018 23:00:00 20,0 12,9 19,3 23,9 24,9 19,0 5 3 7 4 N 1015,1 62 0 0,0
16.06.2018 22:00:00 21,1 11,3 18,8 24,9 25,3 19,0 5 3 6 3 W 1014,5 44 0 0,0
16.06.2018 21:00:00 21,9 11,7 19,6 26,6 25,5 19,0 2 1 7 4 ENE 1013,7 70 26 0,0
16.06.2018 20:00:00 24,9 8,8 23,7 28,9 25,5 19,0 4 2 8 5 SSW 1013,1 70 60 0,0
16.06.2018 19:00:00 26,0 9,5 27,0 30,1 25,4 19,0 2 1 13 7 NNE 1012,9 66 57 0,0
16.06.2018 18:00:00 24,9 11,1 26,1 31,1 25,0 19,0 6 3 13 7 NE 1012,9 64 60 0,0
16.06.2018 17:00:00 25,4 9,1 27,4 32,2 24,4 19,0 5 3 11 6 N 1013,1 51 60 0,0
16.06.2018 16:00:00 24,7 7,5 27,7 32,7 23,6 19,0 6 3 16 9 ENE 1013,3 39 60 0,0
16.06.2018 15:00:00 25,1 10,4 28,7 32,2 22,6 19,0 7 4 15 8 ESE 1013,5 32 60 0,0

tt = temperature
td = dewpoint
tt 5cm = temperature 5cm
tt -5cm = temperature -5cm
tt -20cm = temperature -20cm
tt -100cm = temperature -100cm
ff = wind speed
fx = gusts
dd = wind direction
ppp = reduced air pressure
vv = visibility
sd = sunshine duration
rr = precipitation

Next stations